Regional Weather Roundup
Issued by NWS Newport/Morehead, NC

Current Version | Previous Version | Graphics & Text | Print | Product List | Glossary Off
Versions: 1 2 3 4 5 6 7 8 9 10 11 12 13 14 15 16 17 18 19 20 21 22 23 24 25 26 27 28 29 30 31 32 33 34 35 36 37 38 39 40 41 42 43 44 45 46 47 48 49 50

000
ASUS42 KMHX 240825
RWRMHX
WEATHER ROUNDUP FOR EASTERN NORTH CAROLINA
NATIONAL WEATHER SERVICE NEWPORT/MOREHEAD CITY NC
400 AM EDT SUN SEP 24 2017

NOTE: "FAIR" INDICATES FEW OR NO CLOUDS BELOW 12,000 FEET
WITH NO SIGNIFICANT WEATHER AND/OR OBSTRUCTIONS TO VISIBILITY

NCZ015>017-031-032-045>047-102-103-240900-
NORTH COAST

CITY           SKY/WX    TMP DP  RH WIND       PRES   REMARKS
EDENTON        PTCLDY    67  65  93 CALM      30.04S
ELIZABETH CITY CLOUDY    70  69  97 CALM      30.03S
KITTY HAWK     MOSUNNY   69  64  85 CALM      30.01F
MANTEO         PTCLDY    70  66  88 E3        30.03S

$$

NCZ045>047-081-094-103-104-240900-
CENTRAL COAST

CITY           SKY/WX    TMP DP  RH WIND       PRES   REMARKS
FRISCO         PTCLDY    72  69  90 NE5       30.00F

$$

NCZ095-097-098-100-101-240900-
SOUTHERN COAST

CITY           SKY/WX    TMP DP  RH WIND       PRES   REMARKS
BEAUFORT       PTCLDY    72  71  97 NE7       29.99F
CEDAR ISLAND   NOT AVBL
JACKSONVILLE   PTCLDY    70  69  97 N6        30.00F
PINEY ISLAND     N/A    N/A N/A N/A NE13      30.00F
WILMINGTON     PTCLDY    70  68  93 NE7       30.00F


$$

NCZ011>013-027>030-043-044-078>080-089-090>093-098-240900-
COASTAL PLAIN

CITY           SKY/WX    TMP DP  RH WIND       PRES   REMARKS
AHOSKIE        CLEAR     63  63 100 CALM      30.05R
CLINTON        CLEAR     68  67  99 CALM      30.03S
ELIZABETHTOWN  NOT AVBL
GOLDSBORO      PTCLDY    68  68 100 CALM      30.02S
GREENVILLE     FOG       64  64 100 CALM      30.06S VSB 1
HAVELOCK       PTCLDY    72  70  93 NE8       30.01F
KENANSVILLE    CLEAR     64  64 100 CALM      30.04R FOG
KINSTON        PTCLDY    66  65  95 CALM      30.04S
NEW BERN       PTCLDY    70  69  97 NE6       30.03S
RICHLANDS      PTCLDY    67  66  97 N5        30.02F
ROCKY MOUNT    CLEAR     65  65 100 CALM      30.06R FOG
WASHINGTON     PTCLDY    66  65  97 CALM      30.04S FOG
WHITEVILLE     PTCLDY    70  68  93 CALM      30.01S

$$

AMZ130-135-150-152-154-156-158-170-250-252-270-ANZ085-086-088-633-658-670-240900-
MARINE OBSERVATIONS

STATION/POSITION TIME  TEMP    WIND        PRES    WAVE   SWELL
                       AIR SEA DIR/SP/G            HT/PER HT/PER
                 (UTC) (F)     (DEG/KT/KT) (MB)    (FT/S) (FT/S)
CHESAPEAKE LIGHT NOT AVBL
64 E VA BEACH    0750   70 69  340/  6/  8 1016.9    8/11   8/11
DUCK             0800   73 76   80/  9/  9 1016.3
2 E DUCK         0800      76                N/A     5/15   3/15
OREGON INLET     0800   71 77   60/  5/  8 1016.5
13E OREGON INLT  0748      74                N/A     6/14   7/14
HATTERAS CG      0800   72 78   50/  8/ 12 1015.9
DIAMOND BUOY     0750   73 75   20/ 16/ 19 1015.2    7/15   7/15
CAPE LOOKOUT     0800   74      30/ 17/ 20 1015.2
BEAUFORT LAB     0800   73 77   50/  6/ 10 1015.1
30 SE NEW RVR IN 0808   76      60/ 17/ 23 1014.8
30 SE NEW RVR IN NOT AVBL
27 SE WRIGHTSVLE 0808   77 80   80/ 17/ 23 1014.6
5 SE WRIGHTSVLE  0808   76 79   60/ 14/ 21 1015.3
225 S CAPE HAT   0750   78 80   50/ 21/ 25 1010.3   15/13  13/13
41 SE CHARLESTON 0810   80 82   40/ 14/ 19 1013.1

$$



USA.gov is the U.S. government's official web portal to all federal, state and local government web resources and services.